Dewpoint
61 60 60 59 56 59 59 60 61 65 66 65 66 67 67 67 66 67 68 68 68 69 70 71 71 71 71 71 70 71 71 71 71
61 59 59 59 56 57 59 61 61 64 66 65 66 66 67 68 67 66 67 69 68 69 69 71 71 72 71 72 71 71 71 70 70
59 61 59 59 57 57 59 60 61 63 65 65 65 66 66 67 69 69 68 68 70 69 70 70 71 72 71 71 72 71 70 70 70
56 56 59 61 60 57 59 60 60 62 64 65 65 65 65 65 66 68 69 68 68 69 70 70 70 72 72 71 71 72 71 70 70
57 57 59 62 62 61 61 62 61 62 62 65 65 66 65 65 65 66 69 69 68 67 68 69 70 70 72 71 71 71 71 71 70
60 61 61 62 63 64 64 64 64 65 64 65 66 66 66 65 64 64 65 68 69 67 67 68 70 71 71 71 71 71 71 71 71
58 60 62 63 63 63 63 64 63 63 65 65 66 66 66 66 65 64 64 65 67 69 67 67 68 72 72 72 71 71 71 72 71
56 58 59 60 60 61 64 64 62 62 63 66 66 66 66 66 67 66 64 64 64 67 69 67 67 69 72 72 72 72 71 71 71
53 55 56 58 60 61 61 62 65 66 66 65 66 66 66 67 67 68 66 65 64 64 66 67 67 67 68 71 71 67 67 70 71
52 54 55 57 58 60 62 63 65 66 67 67 67 66 67 67 68 68 69 68 65 64 64 64 64 67 68 68 70 66 65 67 70
50 54 55 56 57 59 61 63 64 65 68 68 67 68 67 67 68 68 69 69 68 66 64 64 64 63 64 68 68 64 64 66 70
45 51 55 57 57 58 61 62 62 65 68 67 64 65 67 68 69 70 69 69 69 69 68 66 66 64 64 65 66 63 63 64 69
44 46 52 56 56 57 58 59 60 63 64 64 64 66 68 69 68 71 70 70 70 70 70 69 68 67 66 64 66 61 62 64 70
43 45 47 55 56 56 55 59 59 60 61 60 62 64 64 66 68 69 70 70 70 70 70 70 69 69 68 67 67 68 59 60 70
44 45 47 53 55 57 56 57 57 58 58 59 61 62 63 64 66 69 70 69 69 70 70 70 69 69 69 69 68 62 61 59 61
46 46 47 50 55 56 55 56 56 55 56 57 58 60 61 62 63 65 69 71 69 69 70 69 70 69 69 69 70 69 60 58 58
46 46 47 50 53 54 56 55 56 55 55 54 55 57 59 61 61 62 65 71 72 71 71 71 71 70 70 70 70 70 70 67 63
45 46 48 50 52 55 55 54 54 54 53 53 52 53 57 59 60 61 62 65 72 71 71 70 70 69 71 70 69 68 67 68 70
46 46 49 51 53 54 52 50 50 51 51 51 52 52 54 56 58 59 60 63 66 57 56 55 56 56 64 70 63 58 56 54 54
48 49 49 53 53 52 50 47 48 49 49 50 50 51 53 54 54 57 60 61 62 68 64 52 51 49 53 54 61 53 52 52 52
Lifted_Index
-3 -2 -2 -1 -1 -1 -1 -1 -1 -0 -0 -0 -0 -1 -1 -1 -1 -1 -2 -2 -2 -2 -2 -3 -3 -3 -3 -3 -2 -2 -2 -3 -3
-3 -2 -2 -2 -2 -1 -1 -1 -1 -0 -0 -0 -0 -1 -1 -1 -1 -1 -1 -2 -2 -2 -2 -3 -3 -3 -3 -3 -3 -2 -2 -3 -3
-2 -2 -2 -2 -2 -2 -2 -2 -1 -1 -0 -0 -0 -0 -0 -1 -1 -1 -1 -1 -2 -2 -2 -2 -3 -3 -3 -3 -3 -3 -3 -3 -3
-1 -2 -2 -2 -3 -2 -2 -2 -2 -1 -1 -1 -1 -0 -0 -0 -1 -1 -1 -1 -1 -2 -2 -2 -2 -2 -2 -3 -3 -3 -3 -3 -3
-1 -1 -2 -2 -3 -3 -3 -2 -2 -2 -2 -2 -1 -1 -0 -0 -0 -1 -1 -1 -1 -1 -2 -2 -2 -2 -2 -3 -3 -3 -3 -3 -3
-2 -1 -2 -2 -2 -2 -2 -2 -2 -2 -2 -2 -2 -2 -1 -0 -0 -0 -1 -1 -1 -1 -1 -1 -1 -2 -2 -3 -3 -3 -3 -3 -3
-2 -2 -2 -2 -1 -1 -2 -2 -2 -1 -1 -1 -1 -1 -2 -1 -1 -0 -1 -1 -1 -1 -1 -1 -1 -2 -2 -3 -3 -3 -3 -3 -3
-2 -2 -2 -2 -1 -1 -1 -1 -1 -1 -1 -1 -1 -1 -2 -2 -1 -1 -1 -1 -1 -1 -1 -1 -1 -1 -2 -3 -3 -3 -3 -3 -4
0 -1 -1 -1 -1 -1 -0 -0 -1 -1 -1 -2 -2 -2 -2 -2 -2 -1 -1 -1 -1 -1 -1 -1 -1 -1 -1 -2 -3 -3 -4 -4 -4
3 2 2 1 0 0 0 0 -1 -1 -2 -2 -2 -3 -3 -2 -2 -2 -2 -2 -1 -1 -1 -1 -1 -1 -1 -2 -2 -3 -3 -4 -4
5 4 4 4 3 2 2 1 -1 -2 -2 -2 -2 -3 -3 -3 -3 -3 -3 -2 -2 -2 -2 -2 -1 -1 -1 -1 -2 -2 -3 -3 -3
5 5 5 5 5 4 4 2 0 -2 -3 -3 -3 -3 -3 -4 -4 -4 -4 -3 -3 -3 -3 -2 -2 -2 -2 -2 -2 -2 -2 -3 -3
7 7 6 5 5 5 5 4 2 0 -1 -2 -2 -2 -3 -4 -5 -5 -5 -4 -4 -4 -3 -3 -3 -3 -3 -3 -2 -2 -2 -2 -2
9 8 6 5 4 5 6 5 4 2 1 0 -1 -1 -2 -3 -4 -4 -5 -5 -5 -5 -4 -4 -4 -4 -4 -4 -3 -3 -3 -2 -2
8 8 7 5 4 4 5 6 5 4 3 2 2 0 -1 -2 -3 -3 -4 -5 -6 -6 -5 -5 -5 -5 -4 -4 -4 -4 -4 -3 -3
7 8 7 6 4 4 5 6 5 4 4 3 3 2 1 -0 -1 -2 -3 -5 -6 -7 -6 -6 -5 -5 -5 -5 -5 -5 -4 -4 -4
7 7 7 6 5 4 4 5 6 5 4 4 3 2 2 1 0 -1 -3 -5 -6 -7 -7 -6 -6 -6 -6 -5 -5 -5 -5 -5 -5
6 6 6 5 5 4 4 5 6 6 5 5 4 3 3 2 1 0 -2 -4 -6 -7 -7 -7 -7 -7 -6 -6 -6 -6 -6 -6 -6
5 5 5 4 4 4 5 5 6 6 6 5 5 4 4 3 2 1 -1 -3 -5 -7 -8 -7 -7 -7 -7 -7 -7 -7 -7 -7 -6
4 4 4 4 4 4 5 5 6 6 6 6 6 5 5 4 3 2 -0 -3 -5 -7 -8 -8 -8 -8 -8 -8 -8 -8 -7 -7 -7